This is the latest recevied weather packets stored in our database for station/object W5ITZ. If no packets are shown the sender has not sent any weather packets the latest 10 day(s).
| Time | Temp. | Humidity | Pressure | Rain* | Wind** | Luminosity | Snow |
|---|---|---|---|---|---|---|---|
| 1778076470 | 25° C | 95% | 1009 hPa | 0 mm | - | 27 W/m² | - |
| 1778076167 | 25° C | 95% | 1008.8 hPa | 0 mm | - | 71 W/m² | - |
| 1778075864 | 25° C | 95% | 1008.9 hPa | 0 mm | - | 90 W/m² | - |
| 1778075560 | 25° C | 95% | 1009.2 hPa | 0 mm | - | 100 W/m² | - |
| 1778075257 | 25° C | 95% | 1009.1 hPa | 0 mm | - | 82 W/m² | - |
| 1778074953 | 25° C | 95% | 1009 hPa | 0 mm | - | 38 W/m² | - |
| 1778074651 | 25° C | 95% | 1008.9 hPa | 0 mm | - | 52 W/m² | - |
| 1778074347 | 25° C | 95% | 1009.3 hPa | 0 mm | - | 57 W/m² | - |
| 1778074044 | 25° C | 95% | 1009.1 hPa | 0 mm | - | 48 W/m² | - |
| 1778073741 | 25° C | 95% | 1009.3 hPa | 0 mm | - | 40 W/m² | - |
| 1778073439 | 24.44° C | 95% | 1009 hPa | 0 mm | - | 54 W/m² | - |
| 1778073135 | 24.44° C | 95% | 1009 hPa | 0 mm | - | 57 W/m² | - |
| 1778072832 | 24.44° C | 95% | 1009.1 hPa | 0 mm | - | 27 W/m² | - |
| 1778072529 | 24.44° C | 95% | 1009.1 hPa | 0 mm | - | 19 W/m² | - |
| 1778072227 | 24.44° C | 95% | 1009 hPa | 0 mm | - | 10 W/m² | - |
| 1778071925 | 24.44° C | 95% | 1008.9 hPa | 0 mm | - | 15 W/m² | - |
| 1778071622 | 24.44° C | 95% | 1009 hPa | 0 mm | - | 30 W/m² | - |
| 1778071320 | 24.44° C | 95% | 1009 hPa | 0 mm | - | 11 W/m² | - |
| 1778071017 | 24.44° C | 95% | 1009 hPa | 0 mm | - | 11 W/m² | - |
| 1778070716 | 24.44° C | 95% | 1009.1 hPa | 0 mm | - | 11 W/m² | - |
| 1778070412 | 24.44° C | 95% | 1008.9 hPa | 0 mm | - | 7 W/m² | - |
| 1778070110 | 24.44° C | 95% | 1008.6 hPa | 0 mm | - | 8 W/m² | - |
| 1778069808 | 24.44° C | 95% | 1008.9 hPa | 0 mm | - | 9 W/m² | - |
| 1778069503 | 24.44° C | 95% | 1008.8 hPa | 0 mm | - | 8 W/m² | - |
| 1778069202 | 24.44° C | 95% | 1008.5 hPa | 0 mm | - | 5 W/m² | - |
* Rain latest hour (hover to see other rain measurements)
** Current wind speed in m/s (hover to see current wind gust speed)